Temp
55 55 55 55 55 55 55 55 55 55 55 56 56 57 57 57 56 52 47 50 50 45 50 58 62 55 55 51 50 53 54 55 50 46 46 45 45 49 47 47 45 46 43 41 41 40 40 60 60 53 53 54 58 58
55 55 54 54 55 55 55 55 55 55 55 55 56 56 56 56 56 53 45 51 52 47 51 57 62 65 64 61 54 50 52 51 51 47 45 45 47 46 43 44 50 46 48 44 45 44 52 54 55 56 57 56 56 56
54 54 54 54 54 54 54 54 55 55 55 55 55 56 56 55 55 54 44 45 47 47 49 52 57 60 62 63 62 54 52 55 53 52 47 45 47 46 44 46 47 51 50 48 47 50 51 55 56 58 58 58 59 59
54 54 54 54 54 54 54 54 54 55 55 55 55 55 55 55 54 54 44 46 46 46 43 50 62 59 64 63 63 61 59 55 53 51 47 45 47 50 45 49 48 51 50 46 45 49 52 55 56 57 58 60 60 61
53 53 53 54 54 54 54 54 54 54 55 55 55 55 55 54 53 50 46 47 49 48 43 46 53 59 59 63 62 59 57 54 51 50 46 46 46 49 45 46 46 49 49 46 44 51 51 52 55 58 57 56 56 56
53 53 53 53 53 54 54 54 54 54 54 54 54 54 54 53 53 47 48 50 50 47 45 42 52 55 58 60 58 54 55 52 49 49 48 48 52 49 43 41 50 50 52 53 51 53 54 55 57 58 56 56 57 55
53 53 53 53 53 53 54 53 53 53 53 54 53 53 53 53 51 46 48 51 50 47 46 43 45 55 60 57 55 55 54 51 51 47 48 48 50 47 42 42 51 51 51 55 56 56 52 54 53 55 54 56 56 55
53 53 53 53 53 53 53 53 53 53 53 53 53 53 53 52 51 48 50 53 50 48 47 41 44 50 56 50 50 51 51 50 51 48 47 48 48 45 44 47 50 52 53 53 55 55 55 54 52 52 53 53 52 51
53 53 53 53 53 53 53 53 53 53 53 53 53 53 49 48 48 51 59 57 50 48 42 42 41 42 54 50 49 50 48 45 48 48 47 50 44 44 49 48 51 52 52 54 55 56 55 52 51 51 51 52 49 49
53 53 53 53 53 53 53 53 53 53 53 53 51 50 46 50 59 57 51 47 46 46 44 41 44 43 51 47 48 48 46 45 44 48 50 48 46 50 53 57 58 55 55 56 53 50 50 49 50 49 50 50 49 49
53 53 53 53 53 53 53 53 53 52 53 47 43 44 49 55 52 49 48 43 45 42 43 43 44 44 52 47 49 50 48 47 43 45 47 44 43 49 53 54 54 55 56 56 56 55 53 51 51 50 49 50 50 51
53 53 53 53 53 53 53 53 52 48 46 48 48 50 46 47 46 45 43 47 43 42 46 44 46 47 50 50 48 49 46 45 42 49 46 41 44 48 53 54 55 54 56 56 55 54 52 52 51 50 49 49 50 52
52 52 52 52 53 53 53 52 53 53 51 48 48 47 46 44 35 40 42 41 42 49 48 49 46 51 51 51 47 47 46 44 49 44 42 44 46 49 51 53 54 54 56 55 54 54 54 52 51 50 50 50 50 50
52 52 52 52 53 53 53 53 53 51 47 45 47 36 40 39 41 45 47 46 49 51 50 48 48 47 47 48 46 45 46 46 41 37 41 44 46 47 48 54 56 56 55 54 53 52 51 51 50 51 50 50 49 50
52 52 52 52 53 54 53 53 53 49 45 44 45 37 40 46 47 51 51 50 51 51 50 48 48 47 45 46 44 45 43 39 41 38 41 44 46 46 47 49 49 50 51 51 50 51 51 50 49 49 50 50 50 50
52 51 50 53 53 53 53 50 49 49 48 46 43 41 45 45 46 48 52 48 52 50 50 48 44 43 43 43 42 43 42 38 41 43 45 45 45 46 47 49 49 50 49 50 50 50 50 49 48 49 49 50 50 53
52 45 53 53 52 52 52 47 48 48 46 45 43 45 45 48 49 52 51 52 51 50 46 46 44 43 43 41 40 43 41 43 44 44 44 45 45 47 48 48 49 51 51 50 49 49 49 49 49 48 48 49 52 53
45 49 52 52 50 48 48 47 46 47 44 45 42 44 46 48 48 49 51 51 50 49 48 47 48 41 40 40 39 42 43 44 45 45 45 46 47 48 48 47 50 50 50 50 49 49 48 48 48 47 48 49 49 51
47 48 51 52 51 47 43 48 47 42 43 44 45 45 46 47 48 50 51 52 52 50 47 44 44 40 41 42 44 45 45 45 46 46 47 49 49 50 50 50 50 50 50 49 48 48 48 48 48 48 49 48 47 48
52 52 52 53 52 45 45 44 51 44 42 45 45 44 45 46 48 48 48 48 47 46 44 43 43 44 44 46 48 48 48 47 46 45 46 47 48 50 49 49 49 48 48 51 49 48 48 48 49 50 50 49 48 50
49 53 53 49 45 43 42 42 41 42 44 42 45 44 46 46 46 46 46 47 45 44 43 44 44 46 48 49 48 48 47 48 46 46 46 45 47 46 48 48 47 47 48 48 48 49 48 50 52 51 50 50 49 50
47 54 46 50 46 48 45 44 41 43 42 43 44 45 44 44 45 46 46 44 44 44 45 45 46 46 47 48 48 48 49 49 47 46 46 46 47 46 46 47 47 47 46 47 48 51 52 53 52 51 50 50 49 50
50 49 45 47 44 41 41 47 43 45 41 44 46 45 45 45 46 48 45 45 46 47 46 46 48 49 49 50 50 50 50 49 47 46 47 46 47 46 47 48 48 48 49 51 51 52 52 50 51 53 51 50 49 48
51 43 43 44 43 40 44 44 48 49 49 45 44 45 46 46 48 45 44 46 47 46 46 47 48 48 48 48 47 49 50 49 47 45 46 46 46 46 47 48 48 50 50 52 51 53 53 56 52 55 53 52 51 49
39 40 40 36 45 43 43 47 47 44 44 46 46 47 47 50 45 45 47 47 46 46 47 47 48 48 48 47 48 49 50 50 49 49 50 48 47 47 48 48 50 50 51 51 52 52 52 52 52 53 54 54 53 53
36 43 38 42 41 42 46 46 49 47 44 44 46 47 47 45 44 44 46 48 48 49 49 50 50 48 48 49 50 50 52 50 49 49 49 49 50 49 49 48 49 52 51 51 52 54 55 54 54 54 55 55 50 55
36 40 41 44 44 49 48 50 52 48 46 46 46 46 46 45 44 46 50 50 51 53 53 53 52 51 53 53 52 55 53 52 53 55 56 51 51 53 53 51 48 52 53 55 54 55 56 56 56 56 55 54 54 55
41 41 39 43 44 49 46 50 49 47 48 47 49 46 48 49 47 50 52 55 55 56 54 53 53 55 54 55 59 56 53 54 55 53 52 53 51 53 53 55 54 49 54 55 57 56 56 56 56 56 56 55 54 55
39 42 43 41 44 45 46 47 48 50 48 46 47 49 51 51 52 55 56 57 54 55 54 53 55 53 54 54 54 54 55 55 55 55 56 52 53 55 54 54 55 56 54 55 50 53 56 57 56 56 57 55 56 55
40 43 42 44 44 45 48 50 50 53 50 50 51 51 51 52 54 55 56 55 55 55 58 57 56 55 57 56 57 58 58 59 59 58 59 59 56 56 56 55 55 56 55 55 56 56 50 53 53 56 55 54 53 53
46 44 43 45 45 48 52 53 52 52 53 52 52 51 55 55 54 54 55 56 58 56 54 56 57 56 55 55 56 56 57 58 57 60 60 58 57 56 57 58 58 56 55 56 56 55 55 53 54 56 55 55 56 55
44 44 44 44 45 50 52 51 51 51 52 51 51 51 51 51 50 54 56 56 57 56 55 57 57 59 60 63 59 60 54 62 60 60 62 58 58 58 57 56 55 56 56 56 56 56 58 58 57 59 57 57 58 58
45 45 45 46 46 48 50 50 50 50 50 50 52 54 53 52 52 59 59 62 64 65 63 62 62 62 61 62 63 62 56 61 59 51 51 51 51 53 55 55 57 59 59 58 57 59 60 59 59 60 58 59 59 59
MSLP
1025.09 1024.77 1024.44 1024.08 1023.68 1023.25 1022.82 1022.36 1021.85 1021.36 1020.87 1020.40 1019.86 1019.25 1018.66 1018.11 1017.52 1017.12 1016.51 1015.88 1015.95 1015.86 1013.88 1012.47 1011.70 1011.27 1010.96 1011.21 1011.38 1011.19 1011.14 1011.00 1011.57 1012.40 1013.09 1012.95 1012.40 1011.49 1011.15 1010.95 1011.00 1011.74 1012.46 1013.31 1013.77 1013.78 1013.46 1012.21 1011.90 1012.28 1013.34 1013.63 1013.91 1014.02
1025.00 1024.68 1024.32 1023.94 1023.52 1023.18 1022.74 1022.25 1021.79 1021.31 1020.83 1020.33 1019.81 1019.33 1018.84 1018.38 1017.90 1017.31 1017.10 1016.10 1016.04 1016.03 1014.17 1012.73 1011.46 1010.79 1010.46 1010.48 1011.01 1011.50 1011.75 1011.73 1012.01 1012.88 1013.49 1013.38 1013.03 1012.49 1012.46 1012.16 1011.56 1012.21 1012.45 1013.34 1014.44 1014.84 1014.30 1013.56 1013.36 1013.63 1013.77 1014.07 1014.38 1014.46
1024.87 1024.57 1024.19 1023.84 1023.41 1023.01 1022.60 1022.14 1021.64 1021.19 1020.75 1020.25 1019.72 1019.24 1018.83 1018.47 1018.11 1017.88 1017.67 1016.96 1016.26 1015.93 1014.21 1012.84 1011.21 1010.21 1009.93 1009.99 1010.15 1011.04 1011.59 1011.54 1011.90 1012.08 1013.10 1013.60 1013.46 1013.15 1013.11 1012.68 1012.30 1012.34 1012.53 1013.93 1014.42 1015.28 1014.90 1014.55 1014.33 1014.25 1014.35 1014.61 1014.70 1014.67
1024.75 1024.42 1024.04 1023.70 1023.33 1022.85 1022.37 1021.92 1021.46 1020.99 1020.46 1019.99 1019.51 1019.09 1018.65 1018.29 1017.96 1017.74 1017.69 1017.14 1017.04 1016.67 1015.66 1012.94 1011.16 1010.69 1009.98 1009.82 1009.98 1010.31 1010.83 1011.30 1011.84 1012.34 1013.26 1013.75 1013.76 1013.16 1013.21 1012.92 1013.00 1012.94 1012.92 1014.28 1015.27 1015.43 1015.24 1015.02 1014.74 1014.63 1014.63 1014.65 1014.70 1014.66
1024.66 1024.32 1023.94 1023.52 1023.12 1022.68 1022.19 1021.72 1021.23 1020.71 1020.18 1019.69 1019.21 1018.78 1018.38 1018.03 1017.62 1017.28 1017.26 1016.86 1016.69 1017.03 1016.31 1014.25 1012.14 1010.59 1010.07 1009.96 1010.06 1010.40 1010.93 1011.66 1012.48 1013.21 1013.79 1013.96 1013.40 1013.46 1013.62 1013.60 1013.66 1013.22 1013.45 1013.96 1014.78 1014.70 1014.85 1014.96 1014.75 1014.74 1014.87 1015.01 1015.06 1015.15
1024.46 1024.14 1023.78 1023.39 1022.96 1022.49 1021.98 1021.46 1020.91 1020.38 1019.90 1019.40 1018.92 1018.43 1018.06 1017.79 1017.46 1017.14 1017.12 1016.77 1016.58 1016.83 1016.59 1015.13 1012.59 1011.22 1010.33 1010.14 1010.45 1010.77 1011.33 1011.96 1012.71 1013.28 1013.57 1013.35 1012.88 1013.10 1014.04 1014.43 1013.61 1013.34 1013.05 1012.93 1013.84 1014.15 1014.40 1014.54 1014.78 1014.70 1014.90 1015.11 1015.26 1015.42
1024.16 1023.89 1023.55 1023.17 1022.73 1022.30 1021.79 1021.25 1020.66 1020.01 1019.38 1018.80 1018.32 1017.94 1017.67 1017.57 1017.54 1017.42 1017.08 1016.61 1016.43 1016.81 1016.53 1015.62 1013.57 1011.60 1010.71 1010.77 1011.18 1011.47 1011.59 1012.18 1012.59 1013.29 1013.53 1013.42 1013.18 1013.25 1014.01 1014.27 1013.61 1013.44 1013.40 1013.30 1013.43 1013.98 1014.61 1014.64 1014.78 1014.74 1014.98 1015.18 1015.36 1015.42
1023.84 1023.59 1023.29 1022.94 1022.55 1022.10 1021.57 1020.98 1020.31 1019.56 1018.78 1018.10 1017.58 1017.20 1017.02 1017.00 1017.16 1016.84 1015.98 1015.82 1016.22 1016.55 1016.46 1016.02 1014.30 1012.62 1011.18 1011.70 1012.06 1012.07 1012.31 1012.56 1012.79 1013.14 1013.40 1013.44 1013.50 1013.64 1013.88 1013.41 1013.35 1013.57 1013.71 1013.73 1013.71 1013.72 1013.85 1014.07 1014.65 1014.95 1015.05 1015.17 1015.23 1015.23
1023.57 1023.33 1023.07 1022.70 1022.30 1021.87 1021.33 1020.69 1019.98 1019.10 1018.20 1017.43 1016.85 1016.46 1016.63 1016.79 1016.69 1016.11 1015.60 1015.72 1016.04 1016.73 1016.46 1016.21 1015.05 1013.27 1011.79 1011.92 1012.14 1012.44 1012.62 1013.23 1013.26 1013.18 1013.22 1013.26 1013.78 1013.57 1012.89 1013.02 1013.27 1013.35 1013.43 1013.45 1013.58 1013.61 1013.84 1014.18 1014.65 1014.92 1015.10 1015.16 1015.31 1015.17
1023.34 1023.12 1022.83 1022.46 1022.08 1021.64 1021.12 1020.53 1019.78 1018.76 1017.70 1016.87 1016.59 1016.72 1016.88 1016.55 1015.93 1015.73 1015.63 1015.82 1015.99 1016.11 1016.22 1015.88 1014.77 1013.66 1012.49 1012.50 1012.49 1012.93 1012.95 1013.13 1013.29 1012.99 1012.87 1013.08 1013.24 1012.36 1012.09 1012.08 1012.12 1012.70 1012.96 1013.10 1013.43 1013.75 1014.18 1014.56 1014.94 1015.09 1015.21 1015.29 1015.37 1015.23
1023.02 1022.82 1022.59 1022.28 1021.91 1021.46 1020.96 1020.47 1019.79 1018.75 1017.68 1017.85 1018.14 1017.94 1017.04 1016.16 1016.00 1015.92 1015.73 1015.94 1015.87 1016.00 1015.53 1014.80 1014.34 1013.76 1012.33 1012.47 1012.55 1012.56 1012.77 1013.05 1013.18 1013.11 1013.10 1013.37 1013.22 1012.52 1011.95 1012.20 1012.71 1013.04 1013.07 1013.14 1013.21 1013.61 1013.97 1014.42 1014.90 1015.21 1015.34 1015.14 1014.83 1014.58
1022.80 1022.58 1022.30 1022.00 1021.66 1021.24 1020.78 1020.41 1019.96 1019.60 1019.43 1019.27 1019.20 1018.64 1017.92 1017.00 1016.49 1016.31 1015.77 1015.39 1015.33 1015.03 1014.41 1014.11 1013.59 1013.35 1012.63 1012.08 1012.31 1012.63 1012.76 1013.10 1013.05 1012.92 1013.29 1013.61 1013.48 1013.07 1012.75 1012.99 1013.14 1013.18 1013.22 1013.42 1013.55 1013.81 1014.14 1014.53 1014.80 1015.00 1014.99 1014.62 1014.24 1013.99
1022.59 1022.34 1022.08 1021.75 1021.37 1020.95 1020.58 1020.24 1019.90 1019.54 1018.92 1018.88 1018.81 1018.49 1018.00 1017.24 1016.74 1016.18 1015.50 1015.10 1014.86 1014.15 1013.86 1013.44 1013.37 1013.00 1012.64 1012.12 1012.44 1012.58 1012.87 1013.12 1012.82 1013.23 1013.60 1013.92 1013.95 1013.67 1013.51 1013.50 1013.51 1013.35 1013.29 1013.55 1013.95 1014.18 1014.37 1014.50 1014.63 1014.71 1014.55 1014.17 1014.01 1013.76
1022.34 1022.08 1021.73 1021.38 1021.06 1020.64 1020.32 1019.99 1019.63 1019.30 1019.27 1018.95 1018.42 1018.34 1017.89 1017.06 1016.31 1015.49 1015.06 1014.77 1014.35 1014.00 1013.54 1013.28 1013.31 1013.15 1013.18 1012.65 1012.77 1012.97 1013.08 1013.12 1013.52 1013.92 1014.03 1014.33 1014.33 1014.24 1014.11 1014.01 1013.82 1013.74 1013.71 1013.90 1013.95 1014.09 1014.27 1014.43 1014.42 1014.27 1014.20 1014.11 1013.96 1013.65
1022.04 1021.71 1021.30 1020.83 1020.67 1020.45 1020.08 1019.63 1019.34 1019.34 1019.28 1018.96 1018.44 1018.00 1017.21 1016.24 1015.63 1014.92 1014.33 1014.17 1013.98 1013.87 1013.56 1013.36 1013.41 1013.44 1013.25 1013.11 1013.23 1013.29 1013.46 1013.59 1013.81 1013.99 1014.20 1014.31 1014.34 1014.50 1014.53 1014.45 1014.34 1014.22 1014.13 1014.12 1014.02 1014.13 1014.17 1014.16 1014.32 1014.12 1014.03 1013.98 1013.74 1013.66
1021.85 1021.37 1021.05 1020.83 1020.60 1020.16 1019.67 1019.31 1019.17 1019.18 1018.86 1018.67 1018.19 1017.56 1016.58 1016.22 1015.42 1014.55 1014.05 1014.09 1013.58 1013.68 1013.84 1014.20 1014.05 1013.78 1013.69 1013.62 1013.65 1013.45 1013.60 1013.61 1013.64 1013.75 1013.54 1013.80 1014.09 1014.13 1014.12 1014.07 1014.01 1014.04 1013.95 1013.96 1014.02 1014.11 1014.08 1014.11 1014.10 1014.04 1013.95 1013.77 1013.61 1013.26
1021.72 1021.54 1020.98 1020.77 1020.38 1019.76 1019.18 1019.28 1019.18 1018.89 1018.55 1018.11 1017.32 1016.63 1016.52 1016.12 1015.47 1014.45 1014.04 1013.75 1013.56 1014.01 1014.27 1014.49 1014.47 1014.10 1013.96 1013.89 1013.89 1013.56 1013.51 1013.41 1013.30 1013.47 1013.64 1013.79 1013.97 1013.89 1013.84 1013.84 1013.72 1013.69 1013.80 1013.79 1013.83 1013.84 1013.84 1013.88 1013.88 1013.95 1013.80 1013.67 1013.36 1012.79
1021.72 1021.19 1021.03 1020.80 1020.44 1019.95 1019.38 1019.16 1019.10 1018.60 1017.97 1017.22 1016.93 1016.27 1015.98 1015.40 1014.85 1014.11 1013.43 1013.22 1013.47 1013.55 1014.18 1014.55 1014.94 1014.72 1014.26 1013.79 1013.56 1013.33 1013.33 1013.25 1013.30 1013.28 1013.32 1013.44 1013.56 1013.52 1013.45 1013.62 1013.49 1013.50 1013.49 1013.53 1013.63 1013.70 1013.69 1013.72 1013.77 1013.76 1013.60 1013.33 1013.17 1012.63
1021.41 1021.17 1020.80 1020.69 1020.68 1020.59 1020.10 1019.06 1018.91 1018.45 1017.40 1016.75 1016.10 1015.67 1015.30 1014.73 1013.95 1013.41 1013.10 1012.89 1013.02 1013.05 1013.78 1014.36 1014.59 1014.53 1013.91 1013.39 1013.13 1013.05 1013.01 1013.04 1013.17 1013.18 1013.03 1012.90 1012.99 1013.05 1013.15 1013.16 1013.24 1013.42 1013.44 1013.40 1013.46 1013.51 1013.50 1013.49 1013.37 1013.31 1013.10 1013.10 1013.03 1012.64
1020.99 1020.55 1020.25 1020.19 1020.30 1020.38 1019.82 1019.02 1018.33 1018.14 1017.35 1016.31 1015.68 1015.18 1014.79 1014.25 1013.28 1013.11 1013.10 1013.17 1013.35 1013.60 1014.11 1014.06 1013.56 1012.95 1012.76 1012.46 1012.35 1012.45 1012.52 1012.58 1012.91 1013.29 1013.26 1013.06 1012.87 1012.85 1013.00 1013.14 1013.27 1013.30 1013.29 1013.24 1013.15 1013.20 1013.22 1013.11 1012.75 1012.67 1012.65 1012.77 1012.73 1012.43
1020.78 1020.15 1020.07 1020.25 1020.36 1020.29 1019.99 1019.03 1018.42 1017.70 1016.88 1016.20 1015.07 1014.79 1014.13 1013.39 1013.23 1013.10 1013.20 1013.28 1013.70 1013.66 1013.41 1012.83 1012.55 1012.20 1011.97 1011.94 1011.98 1012.11 1012.29 1012.40 1012.76 1012.98 1012.99 1013.16 1012.87 1012.99 1013.03 1013.21 1013.25 1013.25 1013.28 1013.12 1013.06 1012.97 1012.89 1012.85 1012.41 1012.11 1012.31 1012.19 1012.00 1011.80
1020.68 1020.13 1020.25 1020.07 1019.96 1019.63 1019.38 1018.53 1018.26 1017.21 1016.81 1015.53 1014.93 1014.19 1013.87 1013.51 1013.09 1012.74 1012.79 1013.09 1013.14 1012.64 1012.53 1012.40 1012.08 1011.86 1011.94 1011.97 1011.96 1011.93 1012.12 1012.29 1012.54 1012.72 1012.82 1012.83 1012.99 1013.24 1013.24 1012.96 1013.00 1013.16 1013.23 1013.10 1012.87 1012.66 1012.40 1011.98 1011.79 1011.66 1011.65 1011.52 1011.49 1011.37
1020.57 1020.35 1020.27 1019.95 1019.77 1019.34 1018.65 1017.84 1017.58 1016.58 1016.11 1014.88 1014.09 1013.74 1013.44 1013.09 1012.75 1012.61 1012.57 1012.38 1012.15 1011.81 1011.91 1011.94 1011.78 1011.75 1011.82 1011.78 1011.77 1011.96 1011.96 1012.18 1012.56 1012.71 1012.81 1012.90 1012.97 1012.96 1012.82 1012.69 1012.80 1012.84 1012.70 1012.30 1012.23 1012.18 1012.01 1011.52 1011.44 1011.28 1011.02 1011.01 1011.09 1011.12
1020.34 1020.45 1020.10 1019.54 1019.20 1018.57 1017.82 1017.06 1016.32 1015.62 1014.73 1014.23 1013.87 1013.34 1012.90 1012.67 1012.41 1012.47 1012.45 1011.87 1011.40 1011.54 1011.74 1011.70 1011.63 1011.87 1012.01 1012.05 1012.10 1011.88 1011.95 1012.17 1012.38 1012.62 1012.69 1012.74 1012.80 1012.59 1012.58 1012.56 1012.29 1012.14 1012.03 1011.71 1011.73 1011.64 1011.31 1011.06 1011.03 1011.01 1011.02 1011.09 1010.77 1010.75
1020.75 1020.20 1020.14 1019.43 1018.58 1018.00 1016.93 1015.72 1014.96 1014.66 1014.10 1013.66 1013.43 1012.88 1012.60 1012.41 1012.13 1012.18 1011.77 1011.31 1011.39 1011.48 1011.48 1011.60 1011.78 1011.92 1012.08 1012.05 1012.01 1011.68 1011.55 1011.81 1012.04 1012.19 1011.94 1012.06 1012.24 1012.21 1012.14 1011.91 1011.54 1011.42 1011.51 1011.69 1011.59 1011.25 1010.89 1010.62 1010.69 1010.71 1010.72 1010.60 1010.51 1010.38
1019.86 1019.16 1019.18 1018.23 1017.47 1016.87 1015.69 1014.47 1013.58 1013.32 1013.26 1013.17 1012.99 1012.72 1012.62 1012.63 1012.42 1011.81 1011.09 1010.64 1010.76 1010.71 1010.84 1011.02 1011.28 1011.70 1011.80 1011.62 1011.67 1011.35 1010.92 1011.08 1011.57 1011.73 1011.28 1011.35 1011.47 1011.77 1011.82 1011.93 1011.75 1011.25 1011.00 1011.06 1010.87 1010.86 1010.68 1010.32 1010.32 1010.40 1010.46 1010.26 1010.35 1010.18
1019.12 1018.31 1017.81 1016.96 1016.50 1015.70 1014.63 1013.58 1012.95 1012.85 1012.77 1012.60 1012.50 1012.64 1012.79 1012.46 1011.87 1011.02 1010.01 1009.65 1009.64 1009.36 1009.60 1009.78 1010.31 1010.75 1010.81 1010.68 1010.57 1010.22 1010.22 1010.60 1010.58 1010.23 1010.06 1010.30 1010.59 1010.63 1010.94 1011.10 1011.14 1010.65 1010.31 1010.34 1010.43 1010.39 1010.37 1010.28 1010.22 1010.28 1010.37 1010.39 1010.16 1009.87
1018.21 1017.56 1017.10 1016.41 1015.84 1015.02 1014.50 1013.51 1012.85 1012.37 1012.06 1011.99 1012.09 1012.05 1011.68 1011.27 1010.61 1009.69 1009.13 1008.57 1008.54 1008.49 1008.91 1009.22 1009.39 1009.59 1009.86 1009.76 1009.58 1009.47 1009.70 1010.02 1010.02 1010.02 1010.08 1010.04 1010.01 1010.13 1010.18 1010.09 1010.14 1009.76 1009.88 1009.99 1010.03 1010.03 1010.04 1010.13 1010.13 1010.17 1010.17 1010.19 1010.01 1009.55
1017.33 1016.64 1016.30 1015.72 1015.17 1014.37 1013.57 1012.98 1012.32 1011.46 1011.14 1011.44 1011.50 1011.13 1010.57 1010.05 1009.27 1008.76 1008.26 1008.12 1008.02 1008.42 1008.89 1009.21 1009.23 1009.13 1009.11 1009.15 1009.02 1008.84 1009.00 1009.37 1009.80 1010.00 1009.92 1009.96 1010.14 1009.83 1009.56 1009.87 1009.75 1009.63 1009.74 1009.84 1009.76 1009.80 1009.78 1009.85 1009.94 1009.92 1009.85 1009.85 1009.68 1009.26
1016.15 1015.60 1015.38 1014.56 1013.91 1013.01 1011.90 1011.29 1010.97 1010.54 1010.57 1010.52 1010.24 1009.92 1009.45 1008.83 1008.02 1007.68 1007.81 1007.90 1008.04 1008.16 1008.03 1008.17 1008.39 1008.88 1008.61 1008.56 1008.51 1008.49 1008.18 1008.32 1008.42 1008.91 1008.88 1009.06 1009.08 1008.71 1009.04 1009.33 1009.53 1009.42 1009.49 1009.70 1009.73 1009.53 1009.44 1009.47 1009.34 1009.34 1009.54 1009.56 1009.50 1009.32
1014.62 1014.49 1014.24 1013.59 1012.65 1011.45 1010.82 1010.33 1010.11 1010.02 1009.90 1009.61 1009.31 1009.51 1008.86 1008.29 1007.49 1006.97 1006.97 1006.78 1006.83 1007.15 1007.70 1007.75 1007.79 1007.85 1008.07 1008.08 1008.04 1008.03 1008.03 1007.60 1007.83 1007.87 1008.00 1007.98 1008.11 1008.20 1008.27 1008.26 1008.42 1008.63 1008.99 1009.24 1009.33 1009.32 1009.37 1009.45 1009.37 1009.31 1009.20 1009.12 1008.94 1008.85
1013.49 1013.28 1012.93 1012.45 1011.42 1010.41 1010.19 1010.11 1009.71 1009.35 1008.97 1008.80 1008.54 1008.32 1008.05 1007.95 1007.65 1006.66 1005.72 1005.94 1006.37 1006.57 1006.54 1006.56 1006.70 1006.66 1006.40 1006.40 1006.50 1006.74 1006.58 1006.63 1006.92 1006.87 1007.08 1007.39 1007.39 1007.24 1007.39 1007.65 1007.92 1008.21 1008.56 1008.83 1008.98 1009.05 1008.80 1008.69 1008.78 1008.73 1008.71 1008.65 1008.51 1008.33
1012.09 1011.98 1011.76 1011.63 1010.71 1009.85 1009.12 1009.14 1008.81 1008.33 1007.84 1007.70 1007.29 1006.91 1006.83 1006.98 1006.53 1005.37 1004.41 1004.35 1004.42 1004.54 1004.97 1005.23 1005.05 1005.04 1005.21 1005.33 1005.43 1005.50 1005.57 1005.76 1005.90 1006.04 1006.22 1006.58 1006.73 1006.93 1007.18 1007.40 1007.62 1007.91 1008.14 1008.34 1008.44 1008.47 1008.21 1008.10 1008.15 1008.14 1008.20 1008.06 1007.93 1007.93
Wind_Speed
10 10 13 14 15 15 15 16 17 18 19 19 20 21 21 21 21 10 4 3 3 1 7 3 4 3 3 2 2 4 3 4 4 5 3 3 2 2 2 3 3 4 5 2 3 5 3 6 3 3 5 3 4 3
10 11 12 13 14 15 16 16 17 17 19 19 20 20 19 19 20 14 3 3 2 3 6 3 7 8 5 6 5 2 3 2 4 5 1 2 1 2 2 1 4 3 5 6 2 5 4 5 7 5 4 5 3 4
11 11 12 13 14 15 16 16 17 18 18 19 19 19 18 17 16 12 3 4 3 3 5 4 5 3 1 4 4 4 2 3 1 3 4 2 1 4 2 2 2 5 3 6 5 2 3 6 5 6 5 5 4 4
11 12 12 13 14 15 16 17 17 18 19 19 19 19 18 17 15 12 2 2 1 1 1 7 4 4 3 2 2 4 4 4 4 3 3 3 2 2 3 3 3 3 4 5 4 3 4 4 3 4 3 2 2 3
11 12 13 13 15 16 16 17 18 19 20 20 19 19 18 17 16 7 3 3 1 3 2 6 9 5 4 2 3 4 4 3 2 2 3 2 1 3 2 3 2 0 7 5 6 7 5 4 3 1 2 2 2 2
11 12 13 14 15 16 17 18 19 20 20 20 20 19 17 15 14 2 3 1 2 2 1 4 4 5 1 2 2 2 2 3 3 3 2 2 2 4 4 2 5 3 2 7 6 5 5 6 5 3 4 4 1 3
10 12 13 14 15 16 17 19 20 20 20 20 19 18 16 12 3 2 4 3 1 0 2 5 6 5 2 3 3 2 3 2 3 2 0 2 1 4 3 3 6 4 3 5 7 8 4 3 4 3 1 4 1 3
10 12 13 14 15 17 17 18 20 21 22 22 21 17 13 8 4 4 2 3 4 3 2 1 6 4 1 0 1 1 1 3 3 2 1 2 2 2 1 4 5 4 4 4 6 4 7 5 5 4 2 0 4 5
10 12 13 14 15 17 18 19 20 22 24 23 17 7 2 2 2 3 2 5 1 3 1 1 2 4 3 0 1 3 2 1 2 1 2 4 1 3 6 8 8 8 9 9 7 5 4 4 3 1 3 5 4 7
10 11 13 13 15 16 17 19 20 23 25 15 3 4 3 1 9 5 3 2 3 2 1 3 1 4 2 1 1 2 1 2 1 4 2 3 4 3 5 11 12 9 7 7 5 3 3 1 3 4 6 6 5 8
9 11 12 14 15 15 16 18 18 22 8 5 5 2 4 10 3 2 2 1 1 2 3 4 5 3 2 3 3 2 2 0 1 5 3 1 3 4 5 7 4 5 6 4 5 4 5 4 5 6 7 7 7 9
10 11 12 14 15 15 15 15 14 5 1 3 4 5 3 3 2 1 2 3 2 4 3 3 5 5 4 2 3 1 2 2 3 1 2 2 4 4 6 7 6 5 7 6 5 6 3 5 6 6 7 7 7 9
10 11 12 14 15 15 15 14 13 12 8 0 2 2 1 1 4 2 2 2 3 3 3 2 1 2 6 3 3 3 2 3 1 2 2 3 3 4 5 4 4 3 6 6 3 3 5 4 4 4 7 7 7 9
10 12 13 14 15 15 10 12 13 7 2 2 1 5 2 2 4 3 2 3 4 2 6 1 0 3 4 2 2 3 2 2 1 1 4 2 2 3 3 2 1 2 3 6 4 1 3 3 6 7 6 6 6 9
10 13 15 11 5 9 13 15 13 1 1 2 2 3 4 4 3 4 4 2 3 3 2 3 3 1 2 3 2 2 1 3 4 4 3 4 5 3 3 2 3 2 2 3 2 3 3 4 5 7 6 5 5 6
11 12 2 3 10 14 17 9 1 1 2 2 3 3 4 2 4 2 3 3 3 1 2 2 2 2 2 2 2 4 3 5 4 4 4 3 3 3 3 4 3 4 4 4 4 3 3 4 5 6 5 4 5 4
8 3 3 9 14 17 11 0 1 3 3 3 4 3 3 3 7 8 3 4 2 2 2 2 4 3 1 1 2 3 4 3 4 3 1 4 4 6 5 4 3 3 4 4 2 2 3 4 4 3 4 4 5 4
3 3 8 10 10 6 3 1 2 3 5 5 3 3 3 4 4 5 3 3 4 3 5 4 2 4 3 4 3 3 3 3 3 4 4 4 5 6 5 6 4 4 3 2 2 3 3 3 3 3 4 4 6 5
5 7 15 13 5 3 3 2 2 3 5 3 4 3 4 4 5 4 4 1 0 2 6 2 4 4 5 4 3 3 3 3 3 3 3 4 5 5 4 3 3 2 3 3 2 4 3 4 5 4 4 3 4 4
13 17 17 10 5 1 3 4 2 3 4 4 3 3 3 4 4 1 2 0 2 3 1 4 6 5 5 4 4 4 4 3 3 1 1 1 2 2 3 3 2 2 4 3 2 4 3 4 4 4 3 4 3 5
5 2 0 3 1 2 2 3 3 4 4 3 3 2 5 2 3 2 3 1 1 4 4 4 4 4 4 3 3 3 2 3 4 4 4 3 3 0 1 1 1 1 1 2 3 4 4 4 5 3 3 5 5 5
3 4 1 2 2 2 4 4 4 4 3 4 4 2 3 2 3 3 3 2 3 4 4 3 2 1 2 3 2 3 1 4 3 2 2 3 2 2 0 2 1 2 2 4 4 5 5 4 4 4 3 5 5 5
7 0 1 2 2 1 6 1 3 3 3 4 2 3 2 2 2 1 2 3 4 2 3 3 2 2 2 0 0 2 3 4 1 1 1 1 1 2 3 3 3 4 4 4 3 4 5 4 5 4 4 3 2 4
1 1 2 3 4 4 2 3 4 3 3 3 2 4 2 2 2 1 3 3 2 2 2 3 2 2 3 2 1 2 2 3 2 1 3 3 2 4 3 4 3 5 5 4 3 4 5 4 4 4 2 4 3 4
1 4 3 4 3 3 4 4 4 2 4 3 2 3 3 3 1 2 3 3 1 2 3 3 2 2 3 2 3 5 3 5 4 4 2 4 2 3 2 3 4 4 1 2 5 3 3 2 3 4 3 4 5 5
4 5 7 4 4 4 4 4 4 4 2 2 3 2 3 2 2 4 3 3 4 5 5 6 5 3 3 5 4 4 5 4 4 3 5 5 5 4 4 3 3 5 3 5 3 1 2 2 3 4 4 3 7 6
4 5 5 4 3 3 4 4 3 2 3 3 2 3 2 3 4 5 4 3 4 5 5 5 5 5 6 5 5 7 3 5 7 6 4 3 4 5 5 5 6 6 4 4 3 4 3 1 2 3 4 3 5 5
5 3 6 3 3 3 4 4 3 3 4 2 3 2 1 3 4 4 5 4 5 3 3 3 5 5 5 6 7 4 2 3 3 2 2 2 2 4 5 4 5 8 4 5 4 2 2 4 4 5 4 3 4 5
4 3 0 5 4 4 6 7 5 4 4 5 5 4 5 4 4 3 3 3 2 4 3 3 5 4 4 4 5 4 5 5 7 5 5 4 3 4 4 5 4 4 3 3 4 5 5 3 4 4 4 3 5 6
6 5 4 5 5 7 6 6 4 3 4 4 3 3 3 4 5 3 3 3 3 5 7 6 4 5 5 2 3 4 5 6 7 6 5 5 6 4 6 6 5 5 4 4 5 5 4 3 3 2 3 3 3 5
3 4 4 4 5 5 6 4 3 2 3 4 5 5 7 5 4 4 5 5 5 3 4 5 5 5 5 5 5 4 5 4 7 9 7 5 4 5 6 7 7 5 5 5 5 5 4 2 3 7 6 7 7 6
4 7 4 3 5 4 3 4 4 5 4 3 4 3 3 1 4 5 4 5 4 4 8 6 6 7 7 7 4 5 10 2 6 7 10 6 6 6 5 4 4 4 5 5 3 4 8 8 5 5 4 6 5 5
4 2 3 3 4 4 4 4 3 4 3 4 6 6 6 6 8 6 3 7 8 12 10 9 8 6 7 8 8 7 7 5 7 10 11 9 9 6 3 3 4 5 5 6 6 7 7 6 6 6 7 7 4 5
Wind_Direction
327 342 338 340 338 344 344 343 344 344 344 345 346 349 352 357 358 2 282 310 86 200 279 283 332 10 348 57 121 282 39 342 44 69 126 225 185 271 50 341 110 133 118 127 90 93 201 8 346 150 175 102 131 63
330 334 336 337 340 339 338 341 342 344 343 342 343 345 346 351 355 3 311 326 337 169 245 290 255 238 229 188 151 4 186 186 182 93 162 123 325 23 148 227 354 40 171 144 126 155 271 318 92 79 84 95 55 82
329 331 335 337 337 337 337 336 340 340 339 338 339 340 340 342 347 357 280 301 1 15 308 1 280 289 151 181 168 116 289 202 186 167 153 154 104 122 124 265 97 360 119 103 85 348 61 70 64 84 108 123 149 144
327 328 332 333 334 334 334 334 335 334 335 334 334 334 333 333 333 342 283 274 122 255 350 283 325 297 313 202 131 131 157 59 94 67 99 126 155 151 205 193 119 213 53 119 68 147 92 47 92 118 96 77 21 350
323 325 328 329 332 332 331 330 332 332 332 330 329 327 327 327 325 320 216 241 221 124 256 280 308 266 279 191 118 87 85 93 77 60 78 221 204 101 2 66 1 266 159 138 198 195 145 190 181 148 70 36 51 78
321 324 327 329 330 331 330 330 329 326 323 322 321 319 317 322 333 348 10 241 28 54 82 311 294 295 197 147 55 113 96 99 93 130 208 247 250 105 99 146 265 281 166 154 167 173 166 149 171 172 161 179 289 318
320 323 325 327 329 329 328 326 322 319 316 313 310 311 312 316 316 166 198 241 43 49 79 312 316 292 237 69 19 35 41 90 114 128 214 169 352 83 104 161 220 218 186 115 123 114 101 167 203 197 165 105 120 249
316 321 324 327 328 328 326 323 321 318 314 313 313 311 307 300 259 306 265 272 144 93 90 273 275 340 148 69 313 8 68 28 8 161 60 157 11 55 224 243 171 164 141 127 159 178 178 168 113 124 139 55 330 307
316 321 322 325 327 327 325 325 324 319 317 314 311 315 59 46 12 257 238 138 125 137 196 187 230 241 355 174 167 22 78 71 298 175 245 101 358 223 217 172 178 182 181 184 190 157 88 86 125 344 317 302 299 297
316 318 321 324 326 326 326 328 327 323 320 313 9 30 339 298 299 347 13 31 360 322 58 229 241 265 99 42 308 94 64 163 162 248 100 132 237 249 202 189 181 185 186 149 121 109 114 171 241 279 277 286 265 271
309 315 319 322 325 327 328 329 330 330 351 22 6 319 290 311 22 28 281 164 203 266 208 237 196 234 275 133 197 167 166 111 76 267 141 226 278 279 181 155 98 113 128 127 116 120 139 166 219 257 279 267 266 283
305 311 315 318 321 322 325 325 333 1 292 274 287 295 302 343 21 348 259 291 195 240 226 194 229 194 276 105 103 308 122 53 232 197 100 250 269 310 91 109 129 144 136 134 143 143 185 228 247 256 264 280 302 292
302 307 310 311 316 318 318 313 316 304 305 40 222 281 296 325 26 228 289 299 295 294 332 279 259 135 348 23 59 75 88 235 1 42 235 230 310 14 74 85 82 58 97 110 132 182 208 258 292 254 290 296 292 298
302 306 306 305 309 312 312 309 317 335 325 303 313 319 173 269 249 218 255 249 254 304 321 263 135 172 212 92 131 107 233 70 8 270 232 194 239 295 331 328 52 24 174 173 188 257 279 310 307 312 301 295 307 323
304 308 308 314 334 322 314 311 316 276 357 289 26 249 235 247 269 268 269 316 337 306 306 12 34 8 358 91 31 83 145 241 201 227 223 211 205 203 252 270 265 275 267 241 256 267 281 328 318 306 332 326 350 323
315 317 319 333 330 317 309 312 316 178 252 250 236 270 274 349 299 266 317 280 217 136 96 63 305 32 336 120 138 220 163 217 229 209 215 174 198 218 240 234 234 270 223 224 252 246 304 309 306 306 315 360 326 328
314 243 318 353 333 316 306 164 285 230 262 244 251 222 224 254 253 275 208 242 121 118 98 10 352 249 121 75 265 188 205 222 208 233 221 192 220 238 233 265 254 216 221 239 249 313 284 290 306 344 336 306 302 306
245 266 343 335 340 323 298 177 250 265 251 241 242 254 217 225 259 280 251 189 155 145 126 171 94 287 238 202 236 240 242 256 228 217 222 219 225 243 218 219 242 229 261 292 283 276 280 301 312 284 286 280 290 299
263 290 298 306 309 319 314 265 189 265 254 264 260 245 228 244 239 256 287 33 37 119 108 117 175 214 235 223 226 259 247 199 208 238 245 247 222 194 184 200 208 207 256 246 229 243 239 248 246 246 249 260 269 301
283 282 280 285 197 261 276 271 208 236 273 262 272 270 227 233 262 246 144 122 90 110 108 201 217 213 188 228 202 209 219 182 128 81 354 287 236 191 205 204 217 219 267 297 267 218 269 296 268 254 239 232 250 275
326 249 64 121 193 193 280 295 284 229 275 268 264 269 263 298 253 215 197 158 87 213 236 225 223 237 223 251 211 180 185 148 175 177 194 223 259 284 346 336 245 230 288 313 315 297 281 252 267 275 231 239 234 250
267 335 328 232 264 218 243 217 223 269 277 257 306 218 283 297 279 251 146 117 228 232 198 208 259 240 188 189 190 190 149 101 127 151 113 126 88 65 297 235 151 258 244 251 247 248 262 269 291 289 266 261 249 261
306 349 272 255 283 273 266 186 257 247 253 264 307 289 287 298 277 14 290 217 246 216 182 194 205 196 203 249 146 175 146 112 136 213 258 167 217 258 268 282 236 232 269 267 215 260 263 273 299 306 310 298 253 263
293 277 253 234 193 257 303 249 229 256 272 273 274 289 317 278 329 18 258 247 241 144 143 196 109 70 22 46 304 272 229 171 150 272 224 189 254 271 225 261 275 223 221 280 291 265 270 267 261 309 320 296 302 247
241 237 184 252 264 246 245 241 216 215 245 228 263 284 300 340 331 275 247 276 190 204 188 173 191 188 185 263 280 268 244 185 189 236 234 192 215 287 272 277 289 250 210 273 264 283 286 252 251 263 249 249 288 309
239 207 191 229 223 211 228 259 218 219 211 223 241 270 10 352 307 257 244 220 207 194 185 183 187 184 246 213 247 269 254 173 137 213 268 196 207 203 256 260 296 302 218 207 192 197 315 324 218 210 207 277 294 305
245 245 218 230 237 272 266 265 253 215 246 220 203 153 187 238 251 257 270 218 190 214 186 184 164 182 219 242 241 253 185 174 187 208 241 223 208 208 198 233 225 230 231 185 196 200 179 154 150 210 259 306 276 291
235 255 206 231 225 228 257 286 275 242 229 176 120 184 239 255 251 234 221 241 219 198 182 202 198 197 215 233 247 251 217 193 212 238 321 305 208 245 240 234 239 190 184 203 196 160 133 172 190 211 209 227 275 288
239 254 173 250 235 242 218 205 229 254 175 146 169 216 235 225 235 226 251 224 151 140 162 212 259 226 268 270 237 210 170 166 153 218 220 232 292 265 203 213 228 206 220 241 243 223 232 227 257 275 283 277 284 291
244 186 213 231 208 220 229 194 221 240 202 201 216 294 292 267 239 214 219 218 171 198 207 193 209 182 220 214 263 259 226 196 184 180 207 222 226 218 181 196 213 225 201 214 245 271 310 309 305 298 268 293 301 300
244 162 213 233 256 237 234 256 262 236 228 229 207 204 249 270 295 238 204 207 213 166 162 208 232 213 201 226 213 218 270 226 208 222 223 235 249 211 201 200 206 206 201 219 241 260 288 273 245 272 288 292 292 289
199 205 201 242 264 253 217 227 232 225 246 220 252 211 295 335 260 269 230 158 172 199 226 206 191 234 214 220 206 220 209 153 185 209 219 213 217 214 203 199 193 194 215 230 240 259 264 259 244 239 243 265 266 264
188 210 216 258 275 264 250 164 258 262 249 234 241 215 210 191 236 253 243 197 199 203 200 210 218 214 206 197 216 225 210 208 210 184 186 172 162 159 153 159 164 182 215 225 204 231 246 192 188 183 204 225 249 285